This is the latest recevied weather packets stored in our database for station/object MB7UIK. If no packets are shown the sender has not sent any weather packets the latest 1 day(s).
| Time | Temp. | Humidity | Pressure | Rain* | Wind** | Luminosity | Snow |
|---|---|---|---|---|---|---|---|
| 1777975545 | 15.56° C | 10% | 1011.8 hPa | 0 mm | 1.79 m/s, 16° | - | - |
| 1777975484 | 15.56° C | 9% | 1011.8 hPa | 0 mm | 1.79 m/s, 26° | - | - |
| 1777975424 | 15.56° C | 8% | 1011.8 hPa | 0 mm | 1.79 m/s, 355° | - | - |
| 1777975365 | 15.56° C | 8% | 1011.8 hPa | 0 mm | 1.34 m/s, 350° | - | - |
| 1777975331 | 15.56° C | 8% | 1011.8 hPa | 0 mm | 1.34 m/s, 350° | - | - |
| 1777975305 | 15.56° C | 7% | 1011.8 hPa | 0 mm | 3.13 m/s, 13° | - | - |
| 1777975245 | 15.56° C | 8% | 1011.8 hPa | 0 mm | 4.47 m/s, 9° | - | - |
| 1777975185 | 15.56° C | 7% | 1011.9 hPa | 0 mm | 2.24 m/s, 28° | - | - |
| 1777975125 | 15.56° C | 5% | 1011.8 hPa | 0 mm | 2.68 m/s, 65° | - | - |
| 1777975065 | 15.56° C | 3% | 1011.9 hPa | 0 mm | 1.79 m/s, 360° | - | - |
| 1777975033 | 15.56° C | 3% | 1011.9 hPa | 0 mm | 1.79 m/s, 360° | - | - |
| 1777975006 | 15.56° C | 3% | 1011.9 hPa | 0 mm | 3.13 m/s, 14° | - | - |
| 1777974945 | 15.56° C | 5% | 1011.9 hPa | 0 mm | 0.89 m/s, 348° | - | - |
| 1777974885 | 15.56° C | 4% | 1011.9 hPa | 0 mm | 2.68 m/s, 355° | - | - |
| 1777974825 | 15.56° C | 2% | 1011.9 hPa | 0 mm | 2.24 m/s, 344° | - | - |
| 1777974765 | 15.56° C | 2% | 1012 hPa | 0 mm | 1.34 m/s, 32° | - | - |
| 1777974731 | 15.56° C | 2% | 1012 hPa | 0 mm | 1.34 m/s, 32° | - | - |
| 1777974704 | 15.56° C | 3% | 1012 hPa | 0 mm | 3.58 m/s, 331° | - | - |
| 1777974644 | 15.56° C | 2% | 1011.9 hPa | 0 mm | 1.79 m/s, 11° | - | - |
| 1777974584 | 15.56° C | 1% | 1011.9 hPa | 0 mm | 1.34 m/s, 38° | - | - |
| 1777974525 | 15.56° C | 100% | 1012 hPa | 0 mm | 0.89 m/s, 18° | - | - |
| 1777974465 | 15.56° C | 100% | 1011.9 hPa | 0 mm | 1.34 m/s, 44° | - | - |
| 1777974433 | 15.56° C | 100% | 1011.9 hPa | 0 mm | 1.34 m/s, 44° | - | - |
| 1777974405 | 15.56° C | 100% | 1012 hPa | 0 mm | 1.79 m/s, 17° | - | - |
| 1777974344 | 15.56° C | 100% | 1012 hPa | 0 mm | 1.34 m/s, 68° | - | - |
* Rain latest hour (hover to see other rain measurements)
** Current wind speed in m/s (hover to see current wind gust speed)